| time (UTC) | temp F | wind direction | speed MPH | gust MPH | rain 1hr in | rain 24hr in | rain mn in | humidity % | barometer mb |
| 20260903063525 | 67 | 354 | 4.0 | 10.0 | 0.00 | 0.00 | 0.00 | 61 | 1012.1 |
| 20260903063024 | 68 | 310 | 4.0 | 11.0 | 0.00 | 0.00 | 0.00 | 61 | 1012.1 |
| 20260903062527 | 68 | 309 | 3.0 | 8.0 | 0.00 | 0.00 | 0.00 | 60 | 1012.0 |
| 20260903062024 | 68 | 305 | 3.0 | 13.0 | 0.00 | 0.00 | 0.00 | 60 | 1012.1 |
| 20260903061536 | 68 | 317 | 4.0 | 13.0 | 0.00 | 0.00 | 0.00 | 60 | 1012.0 |
| 20260903061023 | 68 | 290 | 6.0 | 11.0 | 0.00 | 0.00 | 0.00 | 59 | 1012.1 |
| 20260903060523 | 69 | 322 | 5.0 | 11.0 | 0.00 | 0.00 | 0.00 | 60 | 1012.0 |
| 20260903060023 | 69 | 337 | 6.0 | 14.0 | 0.00 | 0.00 | 0.00 | 60 | 1012.0 |
| 20260903055523 | 69 | 322 | 6.0 | 14.0 | 0.00 | 0.00 | 0.00 | 60 | 1012.0 |
| 20260903055023 | 69 | 314 | 7.0 | 13.0 | 0.00 | 0.00 | 0.00 | 60 | 1012.1 |
| 20260903054523 | 69 | 322 | 4.0 | 12.0 | 0.00 | 0.00 | 0.00 | 61 | 1012.1 |
| 20260903054023 | 70 | 336 | 4.0 | 12.0 | 0.00 | 0.00 | 0.00 | 61 | 1012.1 |
| 20260903053522 | 70 | 339 | 3.0 | 10.0 | 0.00 | 0.00 | 0.00 | 62 | 1012.1 |
| 20260903053022 | 70 | 349 | 4.0 | 10.0 | 0.00 | 0.00 | 0.00 | 62 | 1012.1 |
| 20260903052522 | 70 | 315 | 5.0 | 10.0 | 0.00 | 0.00 | 0.00 | 62 | 1012.1 |
| 20260903052024 | 71 | 339 | 4.0 | 9.0 | 0.00 | 0.00 | 0.00 | 61 | 1012.1 |
| 20260903051522 | 71 | 354 | 3.0 | 10.0 | 0.00 | 0.00 | 0.00 | 61 | 1012.0 |
| 20260903051023 | 71 | 15 | 5.0 | 11.0 | 0.00 | 0.00 | 0.00 | 61 | 1012.1 |
| 20260903050522 | 71 | 305 | 3.0 | 8.0 | 0.00 | 0.00 | 0.00 | 60 | 1012.1 |
| 20260903050025 | 72 | 273 | 4.0 | 9.0 | 0.00 | 0.00 | 0.00 | 60 | 1012.0 |
| 20260903045521 | 72 | 347 | 4.0 | 10.0 | 0.00 | 0.00 | 0.00 | 59 | 1012.0 |
| 20260903045021 | 72 | 334 | 5.0 | 12.0 | 0.00 | 0.00 | 0.00 | 59 | 1011.9 |
| 20260903044521 | 72 | 336 | 5.0 | 12.0 | 0.00 | 0.00 | 0.00 | 58 | 1012.0 |
| 20260903044024 | 72 | 340 | 6.0 | 10.0 | 0.00 | 0.00 | 0.00 | 57 | 1011.8 |
| 20260903043520 | 72 | 277 | 5.0 | 9.0 | 0.00 | 0.00 | 0.00 | 57 | 1011.8 |
| 20260903043020 | 72 | 327 | 4.0 | 9.0 | 0.00 | 0.00 | 0.00 | 57 | 1011.7 |
| 20260903042522 | 71 | 320 | 5.0 | 9.0 | 0.00 | 0.00 | 0.00 | 57 | 1011.6 |
| 20260903042020 | 71 | 268 | 3.0 | 6.0 | 0.00 | 0.00 | 0.00 | 57 | 1011.5 |
| 20260903041530 | 71 | 281 | 2.0 | 5.0 | 0.00 | 0.00 | 0.00 | 56 | 1011.5 |
| 20260903041020 | 71 | 268 | 3.0 | 7.0 | 0.00 | 0.00 | 0.00 | 56 | 1011.4 |
| 20260903040520 | 72 | 324 | 2.0 | 8.0 | 0.00 | 0.00 | 0.00 | 56 | 1011.4 |
| 20260903040020 | 72 | 283 | 3.0 | 9.0 | 0.00 | 0.00 | 0.00 | 56 | 1011.4 |
| 20260903035520 | 72 | 301 | 3.0 | 9.0 | 0.00 | 0.00 | 0.00 | 55 | 1011.3 |
| 20260903035023 | 72 | 289 | 3.0 | 11.0 | 0.00 | 0.00 | 0.00 | 55 | 1011.3 |
| 20260903034519 | 72 | 249 | 7.0 | 11.0 | 0.00 | 0.00 | 0.00 | 54 | 1011.2 |
| 20260903034022 | 73 | 261 | 3.0 | 12.0 | 0.00 | 0.00 | 0.00 | 54 | 1011.2 |
| 20260903033519 | 73 | 241 | 7.0 | 13.0 | 0.00 | 0.00 | 0.00 | 54 | 1011.2 |
| 20260903033019 | 73 | 268 | 6.0 | 13.0 | 0.00 | 0.00 | 0.00 | 53 | 1011.1 |
| 20260903032519 | 73 | 272 | 6.0 | 12.0 | 0.00 | 0.00 | 0.00 | 52 | 1011.1 |
| 20260903032019 | 74 | 246 | 7.0 | 14.0 | 0.00 | 0.00 | 0.00 | 52 | 1011.1 |
| 20260903031524 | 74 | 247 | 7.0 | 14.0 | 0.00 | 0.00 | 0.00 | 51 | 1011.0 |
| 20260903031018 | 75 | 251 | 7.0 | 14.0 | 0.00 | 0.00 | 0.00 | 50 | 1011.0 |
| 20260903030519 | 75 | 243 | 9.0 | 14.0 | 0.00 | 0.00 | 0.00 | 49 | 1011.0 |
| 20260903030019 | 76 | 285 | 8.0 | 13.0 | 0.00 | 0.00 | 0.00 | 49 | 1010.9 |
| 20260903025522 | 76 | 253 | 8.0 | 13.0 | 0.00 | 0.00 | 0.00 | 48 | 1010.9 |
| 20260903025018 | 77 | 248 | 8.0 | 13.0 | 0.00 | 0.00 | 0.00 | 46 | 1010.9 |
| 20260903024517 | 78 | 275 | 7.0 | 15.0 | 0.00 | 0.00 | 0.00 | 45 | 1010.8 |
| 20260903024017 | 79 | 288 | 7.0 | 14.0 | 0.00 | 0.00 | 0.00 | 42 | 1010.8 |
| 20260903023517 | 79 | 268 | 3.0 | 8.0 | 0.00 | 0.00 | 0.00 | 41 | 1010.8 |
| 20260903023016 | 80 | 235 | 5.0 | 8.0 | 0.00 | 0.00 | 0.00 | 40 | 1010.7 |
| 20260903022516 | 80 | 226 | 4.0 | 10.0 | 0.00 | 0.00 | 0.00 | 39 | 1010.8 |
| 20260903022016 | 80 | 301 | 3.0 | 10.0 | 0.00 | 0.00 | 0.00 | 39 | 1010.8 |
| 20260903021518 | 81 | 274 | 4.0 | 10.0 | 0.00 | 0.00 | 0.00 | 38 | 1010.7 |
| 20260903021016 | 81 | 284 | 5.0 | 11.0 | 0.00 | 0.00 | 0.00 | 38 | 1010.8 |
| 20260903020515 | 81 | 256 | 5.0 | 11.0 | 0.00 | 0.00 | 0.00 | 37 | 1010.8 |
| 20260903020031 | 82 | 193 | 6.0 | 11.0 | 0.00 | 0.00 | 0.00 | 37 | 1010.8 |
| 20260903015515 | 82 | 266 | 4.0 | 11.0 | 0.00 | 0.00 | 0.00 | 38 | 1010.9 |
| 20260903015015 | 82 | 239 | 5.0 | 10.0 | 0.00 | 0.00 | 0.00 | 37 | 1010.9 |
| 20260903014514 | 83 | 269 | 5.0 | 11.0 | 0.00 | 0.00 | 0.00 | 37 | 1010.9 |
| 20260903014016 | 83 | 262 | 5.0 | 11.0 | 0.00 | 0.00 | 0.00 | 37 | 1010.9 |
| 20260903013515 | 83 | 206 | 3.0 | 6.0 | 0.00 | 0.00 | 0.00 | 37 | 1010.9 |
| 20260903013014 | 83 | 280 | 2.0 | 8.0 | 0.00 | 0.00 | 0.00 | 36 | 1010.9 |
| 20260903012518 | 83 | 215 | 2.0 | 8.0 | 0.00 | 0.00 | 0.00 | 36 | 1010.9 |
| 20260903012015 | 84 | 255 | 2.0 | 4.0 | 0.00 | 0.00 | 0.00 | 35 | 1010.9 |
| 20260903011513 | 83 | 286 | 0.0 | 4.0 | 0.00 | 0.00 | 0.00 | 33 | 1010.9 |
| 20260903011012 | 83 | 330 | 0.0 | 8.0 | 0.00 | 0.00 | 0.00 | 33 | 1010.9 |
| 20260903010512 | 83 | 279 | 2.0 | 9.0 | 0.00 | 0.00 | 0.00 | 33 | 1011.0 |
| 20260903010014 | 83 | 257 | 4.0 | 9.0 | 0.00 | 0.00 | 0.00 | 33 | 1011.0 |
| 20260903005513 | 83 | 297 | 2.0 | 6.0 | 0.00 | 0.00 | 0.00 | 34 | 1010.9 |
| 20260903005015 | 83 | 272 | 2.0 | 7.0 | 0.00 | 0.00 | 0.00 | 33 | 1011.0 |
| 20260903004512 | 83 | 307 | 2.0 | 7.0 | 0.00 | 0.00 | 0.00 | 33 | 1011.0 |
| 20260903004011 | 84 | 289 | 3.0 | 9.0 | 0.00 | 0.00 | 0.00 | 33 | 1011.0 |
| 20260903003511 | 84 | 281 | 5.0 | 9.0 | 0.00 | 0.00 | 0.00 | 32 | 1011.1 |
| 20260903003010 | 84 | 278 | 3.0 | 10.0 | 0.00 | 0.00 | 0.00 | 33 | 1011.1 |
| 20260903002510 | 84 | 251 | 4.0 | 10.0 | 0.00 | 0.00 | 0.00 | 33 | 1011.2 |
| 20260903002012 | 83 | 240 | 5.0 | 11.0 | 0.00 | 0.00 | 0.00 | 33 | 1011.2 |
| 20260903001509 | 84 | 292 | 4.0 | 10.0 | 0.00 | 0.00 | 0.00 | 33 | 1011.3 |
| 20260903001012 | 84 | 249 | 6.0 | 10.0 | 0.00 | 0.00 | 0.00 | 33 | 1011.3 |
| 20260903000508 | 84 | 276 | 3.0 | 8.0 | 0.00 | 0.00 | 0.00 | 32 | 1011.4 |
| 20260903000008 | 85 | 236 | 4.0 | 7.0 | 0.00 | 0.00 | 0.00 | 32 | 1011.4 |
| 20260902235506 | 85 | 250 | 2.0 | 10.0 | 0.00 | 0.00 | 0.00 | 31 | 1011.4 |
| 20260902235007 | 85 | 249 | 4.0 | 10.0 | 0.00 | 0.00 | 0.00 | 31 | 1011.4 |
| 20260902234504 | 84 | 231 | 2.0 | 7.0 | 0.00 | 0.00 | 0.00 | 31 | 1011.4 |
| 20260902234004 | 84 | 222 | 4.0 | 9.0 | 0.00 | 0.00 | 0.00 | 31 | 1011.5 |
| 20260902233504 | 84 | 312 | 4.0 | 9.0 | 0.00 | 0.00 | 0.00 | 31 | 1011.5 |
| 20260902233003 | 84 | 321 | 2.0 | 8.0 | 0.00 | 0.00 | 0.00 | 30 | 1011.6 |
| 20260902232504 | 84 | 297 | 4.0 | 8.0 | 0.00 | 0.00 | 0.00 | 30 | 1011.7 |
| 20260902232002 | 84 | 305 | 4.0 | 8.0 | 0.00 | 0.00 | 0.00 | 30 | 1011.7 |
| 20260902231502 | 83 | 147 | 0.0 | 8.0 | 0.00 | 0.00 | 0.00 | 30 | 1011.8 |
| 20260902231101 | 83 | 122 | 1.0 | 9.0 | 0.00 | 0.00 | 0.00 | 31 | 1011.8 |
| 20260902230601 | 83 | 293 | 4.0 | 10.0 | 0.00 | 0.00 | 0.00 | 32 | 1011.9 |
| 20260902225559 | 83 | 248 | 5.0 | 10.0 | 0.00 | 0.00 | 0.00 | 30 | 1011.9 |
| 20260902225101 | 84 | 272 | 6.0 | 10.0 | 0.00 | 0.00 | 0.00 | 30 | 1012.1 |
| 20260902224601 | 83 | 297 | 2.0 | 8.0 | 0.00 | 0.00 | 0.00 | 32 | 1012.1 |
| 20260902224055 | 83 | 228 | 5.0 | 11.0 | 0.00 | 0.00 | 0.00 | 32 | 1012.2 |
| 20260902223555 | 83 | 258 | 7.0 | 11.0 | 0.00 | 0.00 | 0.00 | 32 | 1012.2 |
| 20260902223054 | 83 | 264 | 1.0 | 8.0 | 0.00 | 0.00 | 0.00 | 31 | 1012.3 |
| 20260902222553 | 83 | 134 | 3.0 | 8.0 | 0.00 | 0.00 | 0.00 | 32 | 1012.3 |
| 20260902222052 | 82 | 262 | 1.0 | 9.0 | 0.00 | 0.00 | 0.00 | 33 | 1012.4 |
| 20260902221552 | 83 | 330 | 4.0 | 11.0 | 0.00 | 0.00 | 0.00 | 32 | 1012.5 |
| 20260902221051 | 83 | 285 | 4.0 | 11.0 | 0.00 | 0.00 | 0.00 | 33 | 1012.4 |
| 20260902220549 | 82 | 150 | 2.0 | 9.0 | 0.00 | 0.00 | 0.00 | 34 | 1012.6 |
| 20260902220051 | 82 | 251 | 2.0 | 9.0 | 0.00 | 0.00 | 0.00 | 34 | 1012.7 |
| 20260902215548 | 81 | 262 | 2.0 | 8.0 | 0.00 | 0.00 | 0.00 | 35 | 1012.7 |
| 20260902215050 | 82 | 278 | 5.0 | 9.0 | 0.00 | 0.00 | 0.00 | 34 | 1012.7 |
| 20260902214549 | 82 | 257 | 5.0 | 9.0 | 0.00 | 0.00 | 0.00 | 34 | 1012.8 |
| 20260902214047 | 82 | 228 | 3.0 | 6.0 | 0.00 | 0.00 | 0.00 | 33 | 1012.9 |
| 20260902213548 | 81 | 154 | 1.0 | 8.0 | 0.00 | 0.00 | 0.00 | 34 | 1013.0 |
| 20260902213044 | 80 | 218 | 2.0 | 10.0 | 0.00 | 0.00 | 0.00 | 34 | 1013.1 |
| 20260902212543 | 81 | 239 | 5.0 | 10.0 | 0.00 | 0.00 | 0.00 | 33 | 1013.2 |
| 20260902212043 | 81 | 174 | 1.0 | 10.0 | 0.00 | 0.00 | 0.00 | 35 | 1013.2 |
| 20260902211544 | 80 | 322 | 4.0 | 10.0 | 0.00 | 0.00 | 0.00 | 36 | 1013.3 |
| 20260902211042 | 80 | 264 | 4.0 | 10.0 | 0.00 | 0.00 | 0.00 | 35 | 1013.4 |
| 20260902210544 | 80 | 241 | 4.0 | 9.0 | 0.00 | 0.00 | 0.00 | 35 | 1013.4 |
| 20260902210041 | 80 | 288 | 3.0 | 12.0 | 0.00 | 0.00 | 0.00 | 36 | 1013.4 |
| 20260902205541 | 80 | 244 | 4.0 | 12.0 | 0.00 | 0.00 | 0.00 | 36 | 1013.4 |
| 20260902205043 | 80 | 152 | 3.0 | 10.0 | 0.00 | 0.00 | 0.00 | 35 | 1013.4 |
| 20260902204540 | 79 | 208 | 6.0 | 10.0 | 0.00 | 0.00 | 0.00 | 37 | 1013.5 |
| 20260902204038 | 79 | 166 | 2.0 | 11.0 | 0.00 | 0.00 | 0.00 | 38 | 1013.5 |
| 20260902203538 | 78 | 194 | 6.0 | 11.0 | 0.00 | 0.00 | 0.00 | 38 | 1013.6 |
| 20260902203038 | 78 | 308 | 4.0 | 9.0 | 0.00 | 0.00 | 0.00 | 38 | 1013.6 |
| 20260902202538 | 78 | 251 | 2.0 | 8.0 | 0.00 | 0.00 | 0.00 | 40 | 1013.7 |
| 20260902202038 | 78 | 260 | 4.0 | 9.0 | 0.00 | 0.00 | 0.00 | 40 | 1013.8 |
| 20260902201547 | 78 | 316 | 4.0 | 9.0 | 0.00 | 0.00 | 0.00 | 39 | 1013.8 |
| 20260902201037 | 79 | 266 | 5.0 | 10.0 | 0.00 | 0.00 | 0.00 | 38 | 1013.9 |
| 20260902200539 | 79 | 234 | 4.0 | 10.0 | 0.00 | 0.00 | 0.00 | 37 | 1013.9 |
| 20260902200044 | 79 | 295 | 2.0 | 5.0 | 0.00 | 0.00 | 0.00 | 37 | 1013.9 |
| 20260902195536 | 79 | 322 | 1.0 | 4.0 | 0.00 | 0.00 | 0.00 | 38 | 1013.9 |
| 20260902195034 | 78 | 359 | 1.0 | 5.0 | 0.00 | 0.00 | 0.00 | 40 | 1013.9 |
| 20260902194547 | 77 | 138 | 3.0 | 7.0 | 0.00 | 0.00 | 0.00 | 40 | 1014.0 |
| 20260902194035 | 77 | 318 | 1.0 | 8.0 | 0.00 | 0.00 | 0.00 | 40 | 1014.0 |
| 20260902193532 | 77 | 277 | 4.0 | 8.0 | 0.00 | 0.00 | 0.00 | 40 | 1014.1 |
| 20260902193032 | 77 | 313 | 2.0 | 7.0 | 0.00 | 0.00 | 0.00 | 39 | 1014.2 |
| 20260902192530 | 77 | 152 | 1.0 | 7.0 | 0.00 | 0.00 | 0.00 | 39 | 1014.2 |
| 20260902192030 | 76 | 218 | 4.0 | 9.0 | 0.00 | 0.00 | 0.00 | 40 | 1014.3 |
| 20260902191529 | 76 | 227 | 3.0 | 9.0 | 0.00 | 0.00 | 0.00 | 40 | 1014.3 |
| 20260902191028 | 75 | 337 | 2.0 | 8.0 | 0.00 | 0.00 | 0.00 | 42 | 1014.3 |
| 20260902190530 | 75 | 298 | 3.0 | 8.0 | 0.00 | 0.00 | 0.00 | 43 | 1014.3 |
| 20260902190027 | 75 | 297 | 3.0 | 8.0 | 0.00 | 0.00 | 0.00 | 42 | 1014.4 |
| 20260902185527 | 76 | 337 | 2.0 | 5.0 | 0.00 | 0.00 | 0.00 | 42 | 1014.5 |
| 20260902185024 | 75 | 141 | 0.0 | 5.0 | 0.00 | 0.00 | 0.00 | 43 | 1014.5 |
| 20260902184528 | 75 | 334 | 1.0 | 8.0 | 0.00 | 0.00 | 0.00 | 44 | 1014.5 |
| 20260902184024 | 75 | 237 | 4.0 | 8.0 | 0.00 | 0.00 | 0.00 | 43 | 1014.6 |
| 20260902183523 | 75 | 307 | 1.0 | 6.0 | 0.00 | 0.00 | 0.00 | 43 | 1014.6 |
| 20260902183021 | 74 | 314 | 2.0 | 7.0 | 0.00 | 0.00 | 0.00 | 43 | 1014.5 |
| 20260902182520 | 74 | 286 | 4.0 | 6.0 | 0.00 | 0.00 | 0.00 | 44 | 1014.7 |
| 20260902182020 | 74 | 257 | 2.0 | 7.0 | 0.00 | 0.00 | 0.00 | 45 | 1014.7 |
| 20260902181519 | 73 | 184 | 2.0 | 7.0 | 0.00 | 0.00 | 0.00 | 44 | 1014.8 |
| 20260902181019 | 73 | 333 | 1.0 | 8.0 | 0.00 | 0.00 | 0.00 | 45 | 1014.8 |
| 20260902180517 | 73 | 250 | 4.0 | 7.0 | 0.00 | 0.00 | 0.00 | 44 | 1014.8 |
| 20260902180017 | 74 | 224 | 3.0 | 5.0 | 0.00 | 0.00 | 0.00 | 44 | 1014.7 |
| 20260902175516 | 74 | 197 | 1.0 | 4.0 | 0.00 | 0.00 | 0.00 | 44 | 1014.7 |
| 20260902175015 | 74 | 135 | 2.0 | 4.0 | 0.00 | 0.00 | 0.00 | 43 | 1014.8 |
| 20260902174514 | 74 | 70 | 1.0 | 4.0 | 0.00 | 0.00 | 0.00 | 46 | 1014.7 |
| 20260902174015 | 73 | 318 | 1.0 | 4.0 | 0.00 | 0.00 | 0.00 | 46 | 1014.8 |
| 20260902173514 | 73 | 128 | 1.0 | 4.0 | 0.00 | 0.00 | 0.00 | 47 | 1014.8 |
| 20260902173013 | 72 | 39 | 2.0 | 4.0 | 0.00 | 0.00 | 0.00 | 50 | 1014.8 |
| 20260902172508 | 70 | 141 | 1.0 | 8.0 | 0.00 | 0.00 | 0.00 | 52 | 1014.9 |
| 20260902172008 | 70 | 326 | 3.0 | 8.0 | 0.00 | 0.00 | 0.00 | 52 | 1014.9 |
| 20260902171506 | 70 | 323 | 1.0 | 5.0 | 0.00 | 0.00 | 0.00 | 52 | 1014.9 |
| 20260902171008 | 69 | 348 | 2.0 | 8.0 | 0.00 | 0.00 | 0.00 | 53 | 1014.9 |
| 20260902170505 | 69 | 313 | 4.0 | 8.0 | 0.00 | 0.00 | 0.00 | 54 | 1014.9 |
| 20260902170003 | 70 | 117 | 1.0 | 7.0 | 0.00 | 0.00 | 0.00 | 53 | 1014.9 |
| 20260902165502 | 70 | 308 | 2.0 | 6.0 | 0.00 | 0.00 | 0.00 | 53 | 1014.8 |
| 20260902165101 | 69 | 330 | 2.0 | 5.0 | 0.00 | 0.00 | 0.00 | 56 | 1014.8 |
| 20260902164559 | 68 | 258 | 1.0 | 8.0 | 0.00 | 0.00 | 0.00 | 58 | 1014.8 |
| 20260902164057 | 67 | 277 | 4.0 | 8.0 | 0.00 | 0.00 | 0.00 | 58 | 1014.8 |
| 20260902163556 | 67 | 303 | 1.0 | 6.0 | 0.00 | 0.00 | 0.00 | 59 | 1014.8 |
| 20260902163055 | 67 | 235 | 3.0 | 8.0 | 0.00 | 0.00 | 0.00 | 59 | 1014.8 |
| 20260902162553 | 67 | 274 | 4.0 | 8.0 | 0.00 | 0.00 | 0.00 | 59 | 1014.8 |
| 20260902162054 | 67 | 262 | 3.0 | 8.0 | 0.00 | 0.00 | 0.00 | 59 | 1014.8 |
| 20260902161556 | 67 | 51 | 1.0 | 5.0 | 0.00 | 0.00 | 0.00 | 61 | 1014.7 |
| 20260902161049 | 66 | 328 | 2.0 | 5.0 | 0.00 | 0.00 | 0.00 | 62 | 1014.7 |
| 20260902160547 | 66 | 319 | 2.0 | 4.0 | 0.00 | 0.00 | 0.00 | 62 | 1014.7 |
| 20260902160100 | 65 | 301 | 1.0 | 5.0 | 0.00 | 0.00 | 0.00 | 63 | 1014.7 |
| 20260902155545 | 65 | 342 | 1.0 | 5.0 | 0.00 | 0.00 | 0.00 | 66 | 1014.7 |
| 20260902155045 | 64 | 329 | 1.0 | 6.0 | 0.00 | 0.00 | 0.00 | 66 | 1014.8 |
| 20260902154541 | 64 | 262 | 1.0 | 5.0 | 0.00 | 0.00 | 0.00 | 68 | 1014.7 |
| 20260902154040 | 63 | 328 | 2.0 | 5.0 | 0.00 | 0.00 | 0.00 | 68 | 1014.7 |
| 20260902153539 | 63 | 246 | 2.0 | 5.0 | 0.00 | 0.00 | 0.00 | 70 | 1014.7 |
| 20260902153039 | 63 | 257 | 2.0 | 6.0 | 0.00 | 0.00 | 0.00 | 71 | 1014.7 |
| 20260902152537 | 62 | 273 | 2.0 | 6.0 | 0.00 | 0.00 | 0.00 | 71 | 1014.6 |
| 20260902152037 | 62 | 273 | 3.0 | 8.0 | 0.00 | 0.00 | 0.00 | 72 | 1014.6 |
| 20260902151545 | 61 | 230 | 4.0 | 8.0 | 0.00 | 0.00 | 0.00 | 73 | 1014.6 |
| 20260902151037 | 61 | 307 | 3.0 | 8.0 | 0.00 | 0.00 | 0.00 | 75 | 1014.6 |
| 20260902150535 | 61 | 347 | 3.0 | 7.0 | 0.00 | 0.00 | 0.00 | 75 | 1014.6 |
| 20260902150036 | 60 | 300 | 3.0 | 7.0 | 0.00 | 0.00 | 0.00 | 75 | 1014.6 |
| 20260902145534 | 60 | 268 | 3.0 | 6.0 | 0.00 | 0.00 | 0.00 | 76 | 1014.6 |
| 20260902145033 | 60 | 303 | 2.0 | 8.0 | 0.00 | 0.00 | 0.00 | 76 | 1014.4 |
| 20260902144531 | 60 | 341 | 3.0 | 8.0 | 0.00 | 0.00 | 0.00 | 77 | 1014.3 |
| 20260902144031 | 59 | 312 | 1.0 | 6.0 | 0.00 | 0.00 | 0.00 | 78 | 1014.3 |
| 20260902143534 | 59 | 285 | 2.0 | 6.0 | 0.00 | 0.00 | 0.00 | 79 | 1014.2 |
| 20260902143030 | 59 | 243 | 2.0 | 4.0 | 0.00 | 0.00 | 0.00 | 79 | 1014.2 |
| 20260902142529 | 58 | 286 | 1.0 | 7.0 | 0.00 | 0.00 | 0.00 | 80 | 1014.1 |
| 20260902142027 | 58 | 240 | 2.0 | 7.0 | 0.00 | 0.00 | 0.00 | 80 | 1014.0 |
| 20260902141535 | 58 | 289 | 2.0 | 6.0 | 0.00 | 0.00 | 0.00 | 80 | 1013.9 |
| 20260902141025 | 58 | 297 | 2.0 | 7.0 | 0.00 | 0.00 | 0.00 | 80 | 1013.8 |
| 20260902140524 | 58 | 262 | 3.0 | 7.0 | 0.00 | 0.00 | 0.00 | 80 | 1013.8 |
| 20260902140024 | 58 | 252 | 3.0 | 7.0 | 0.00 | 0.00 | 0.00 | 80 | 1013.8 |
| 20260902135523 | 57 | 279 | 2.0 | 7.0 | 0.00 | 0.00 | 0.00 | 80 | 1013.7 |
| 20260902135022 | 57 | 288 | 2.0 | 6.0 | 0.00 | 0.00 | 0.00 | 80 | 1013.6 |
| 20260902134527 | 57 | 286 | 3.0 | 6.0 | 0.00 | 0.00 | 0.00 | 81 | 1013.6 |
| 20260902134020 | 57 | 274 | 2.0 | 6.0 | 0.00 | 0.00 | 0.00 | 81 | 1013.5 |
| 20260902133519 | 57 | 287 | 2.0 | 8.0 | 0.00 | 0.00 | 0.00 | 81 | 1013.5 |
| 20260902133019 | 57 | 267 | 3.0 | 8.0 | 0.00 | 0.00 | 0.00 | 80 | 1013.5 |
| 20260902132520 | 57 | 268 | 4.0 | 8.0 | 0.00 | 0.00 | 0.00 | 80 | 1013.5 |
| 20260902132018 | 58 | 257 | 2.0 | 7.0 | 0.00 | 0.00 | 0.00 | 80 | 1013.4 |
| 20260902131517 | 58 | 251 | 3.0 | 7.0 | 0.00 | 0.00 | 0.00 | 80 | 1013.3 |
| 20260902131019 | 58 | 281 | 3.0 | 7.0 | 0.00 | 0.00 | 0.00 | 79 | 1013.3 |
| 20260902130517 | 58 | 319 | 3.0 | 7.0 | 0.00 | 0.00 | 0.00 | 79 | 1013.4 |
| 20260902130016 | 58 | 273 | 1.0 | 4.0 | 0.00 | 0.00 | 0.00 | 79 | 1013.4 |
| 20260902125516 | 58 | 299 | 1.0 | 4.0 | 0.00 | 0.00 | 0.00 | 79 | 1013.3 |
| 20260902125020 | 58 | 248 | 2.0 | 4.0 | 0.00 | 0.00 | 0.00 | 79 | 1013.2 |
| 20260902124517 | 58 | 272 | 0.0 | 6.0 | 0.00 | 0.00 | 0.00 | 79 | 1013.2 |
| 20260902124015 | 58 | 286 | 2.0 | 6.0 | 0.00 | 0.00 | 0.00 | 79 | 1013.2 |
| 20260902123515 | 58 | 295 | 2.0 | 6.0 | 0.00 | 0.00 | 0.00 | 79 | 1013.1 |
| 20260902123020 | 58 | 270 | 2.0 | 6.0 | 0.00 | 0.00 | 0.00 | 79 | 1013.2 |
| 20260902122518 | 58 | 277 | 2.0 | 5.0 | 0.00 | 0.00 | 0.00 | 79 | 1013.2 |
| 20260902122014 | 58 | 294 | 2.0 | 6.0 | 0.00 | 0.00 | 0.00 | 78 | 1013.2 |
| 20260902121515 | 58 | 283 | 2.0 | 4.0 | 0.00 | 0.00 | 0.00 | 78 | 1013.2 |
| 20260902121013 | 58 | 289 | 2.0 | 4.0 | 0.00 | 0.00 | 0.00 | 77 | 1013.2 |
| 20260902120513 | 58 | 263 | 2.0 | 3.0 | 0.00 | 0.00 | 0.00 | 77 | 1013.2 |
| 20260902120013 | 58 | 282 | 2.0 | 4.0 | 0.00 | 0.00 | 0.00 | 76 | 1013.3 |
| 20260902115516 | 58 | 267 | 1.0 | 4.0 | 0.00 | 0.00 | 0.00 | 76 | 1013.3 |
| 20260902115013 | 58 | 279 | 2.0 | 4.0 | 0.00 | 0.00 | 0.00 | 76 | 1013.3 |
| 20260902114514 | 58 | 270 | 1.0 | 4.0 | 0.00 | 0.00 | 0.00 | 76 | 1013.4 |
| 20260902114011 | 59 | 295 | 1.0 | 3.0 | 0.00 | 0.00 | 0.00 | 75 | 1013.4 |
| 20260902113510 | 59 | 285 | 1.0 | 4.0 | 0.00 | 0.00 | 0.00 | 75 | 1013.4 |
| 20260902113010 | 59 | 324 | 2.0 | 4.0 | 0.00 | 0.00 | 0.00 | 75 | 1013.4 |
| 20260902112510 | 59 | 301 | 2.0 | 4.0 | 0.00 | 0.00 | 0.00 | 75 | 1013.5 |
| 20260902112009 | 59 | 262 | 2.0 | 4.0 | 0.00 | 0.00 | 0.00 | 74 | 1013.5 |
| 20260902111508 | 59 | 275 | 2.0 | 4.0 | 0.00 | 0.00 | 0.00 | 74 | 1013.5 |
| 20260902111008 | 59 | 297 | 1.0 | 5.0 | 0.00 | 0.00 | 0.00 | 74 | 1013.5 |
| 20260902110509 | 59 | 313 | 2.0 | 5.0 | 0.00 | 0.00 | 0.00 | 73 | 1013.5 |
| 20260902110017 | 59 | 262 | 2.0 | 5.0 | 0.00 | 0.00 | 0.00 | 73 | 1013.5 |
| 20260902105506 | 59 | 320 | 2.0 | 7.0 | 0.00 | 0.00 | 0.00 | 73 | 1013.4 |
| 20260902105007 | 60 | 280 | 2.0 | 7.0 | 0.00 | 0.00 | 0.00 | 72 | 1013.5 |
| 20260902104517 | 60 | 305 | 2.0 | 7.0 | 0.00 | 0.00 | 0.00 | 72 | 1013.5 |
| 20260902104005 | 60 | 293 | 3.0 | 7.0 | 0.00 | 0.00 | 0.00 | 72 | 1013.4 |
| 20260902103506 | 60 | 278 | 3.0 | 7.0 | 0.00 | 0.00 | 0.00 | 72 | 1013.4 |
| 20260902103003 | 60 | 262 | 2.0 | 7.0 | 0.00 | 0.00 | 0.00 | 71 | 1013.3 |
| 20260902102503 | 60 | 287 | 2.0 | 7.0 | 0.00 | 0.00 | 0.00 | 71 | 1013.4 |
| 20260902102002 | 60 | 264 | 4.0 | 7.0 | 0.00 | 0.00 | 0.00 | 71 | 1013.4 |
| 20260902101502 | 60 | 318 | 2.0 | 6.0 | 0.00 | 0.00 | 0.00 | 71 | 1013.4 |
| 20260902101001 | 60 | 306 | 2.0 | 6.0 | 0.00 | 0.00 | 0.00 | 70 | 1013.5 |
| 20260902100501 | 60 | 314 | 2.0 | 7.0 | 0.00 | 0.00 | 0.00 | 70 | 1013.3 |
| 20260902100128 | 60 | 316 | 3.0 | 7.0 | 0.00 | 0.00 | 0.00 | 70 | 1013.3 |
| 20260902095601 | 60 | 337 | 3.0 | 8.0 | 0.00 | 0.00 | 0.00 | 70 | 1013.3 |
| 20260902095104 | 60 | 295 | 3.0 | 7.0 | 0.00 | 0.00 | 0.00 | 69 | 1013.2 |
| 20260902094558 | 60 | 305 | 3.0 | 8.0 | 0.00 | 0.00 | 0.00 | 69 | 1013.2 |
| 20260902094057 | 61 | 305 | 3.0 | 8.0 | 0.00 | 0.00 | 0.00 | 69 | 1013.2 |
| 20260902093557 | 61 | 287 | 3.0 | 8.0 | 0.00 | 0.00 | 0.00 | 69 | 1013.1 |
| 20260902093112 | 61 | 293 | 3.0 | 8.0 | 0.00 | 0.00 | 0.00 | 69 | 1013.1 |
| 20260902092556 | 61 | 326 | 3.0 | 8.0 | 0.00 | 0.00 | 0.00 | 69 | 1013.1 |
| 20260902092056 | 61 | 289 | 2.0 | 9.0 | 0.00 | 0.00 | 0.00 | 69 | 1013.2 |
| 20260902091601 | 61 | 334 | 3.0 | 9.0 | 0.00 | 0.00 | 0.00 | 69 | 1013.3 |
| 20260902091055 | 61 | 297 | 2.0 | 5.0 | 0.00 | 0.00 | 0.00 | 69 | 1013.3 |
| 20260902090555 | 61 | 15 | 2.0 | 5.0 | 0.00 | 0.00 | 0.00 | 69 | 1013.3 |
| 20260902090101 | 61 | 291 | 2.0 | 5.0 | 0.00 | 0.00 | 0.00 | 69 | 1013.3 |
| 20260902085557 | 61 | 301 | 1.0 | 4.0 | 0.00 | 0.00 | 0.00 | 68 | 1013.3 |
| 20260902085055 | 61 | 323 | 1.0 | 7.0 | 0.00 | 0.00 | 0.00 | 68 | 1013.2 |
| 20260902084602 | 61 | 319 | 2.0 | 6.0 | 0.00 | 0.00 | 0.00 | 68 | 1013.4 |
| 20260902084053 | 61 | 323 | 2.0 | 4.0 | 0.00 | 0.00 | 0.00 | 68 | 1013.3 |
| 20260902083552 | 61 | 306 | 1.0 | 4.0 | 0.00 | 0.00 | 0.00 | 68 | 1013.3 |
| 20260902083105 | 61 | 308 | 2.0 | 6.0 | 0.00 | 0.00 | 0.00 | 68 | 1013.3 |
| 20260902082551 | 61 | 301 | 3.0 | 6.0 | 0.00 | 0.00 | 0.00 | 68 | 1013.4 |
| 20260902082051 | 61 | 289 | 3.0 | 7.0 | 0.00 | 0.00 | 0.00 | 68 | 1013.4 |
| 20260902081610 | 61 | 310 | 3.0 | 6.0 | 0.00 | 0.00 | 0.00 | 67 | 1013.5 |
| 20260902081051 | 61 | 325 | 2.0 | 6.0 | 0.00 | 0.00 | 0.00 | 67 | 1013.5 |
| 20260902080550 | 62 | 330 | 3.0 | 6.0 | 0.00 | 0.00 | 0.00 | 67 | 1013.4 |
| 20260902080057 | 62 | 280 | 3.0 | 8.0 | 0.00 | 0.00 | 0.00 | 67 | 1013.5 |
| 20260902075548 | 62 | 337 | 3.0 | 8.0 | 0.00 | 0.00 | 0.00 | 67 | 1013.5 |
| 20260902075048 | 62 | 280 | 3.0 | 7.0 | 0.00 | 0.00 | 0.00 | 66 | 1013.5 |
| 20260902074547 | 62 | 318 | 3.0 | 11.0 | 0.00 | 0.00 | 0.00 | 66 | 1013.4 |
| 20260902074047 | 62 | 301 | 4.0 | 11.0 | 0.00 | 0.00 | 0.00 | 66 | 1013.4 |
| 20260902073546 | 62 | 312 | 3.0 | 9.0 | 0.00 | 0.00 | 0.00 | 66 | 1013.4 |
| 20260902073046 | 62 | 296 | 4.0 | 9.0 | 0.00 | 0.00 | 0.00 | 66 | 1013.3 |
| 20260902072544 | 62 | 354 | 4.0 | 9.0 | 0.00 | 0.00 | 0.00 | 66 | 1013.4 |
| 20260902072046 | 63 | 341 | 3.0 | 10.0 | 0.00 | 0.00 | 0.00 | 65 | 1013.4 |
| 20260902071549 | 63 | 324 | 4.0 | 10.0 | 0.00 | 0.00 | 0.00 | 65 | 1013.4 |
| 20260902071043 | 63 | 253 | 3.0 | 11.0 | 0.00 | 0.00 | 0.00 | 65 | 1013.4 |
| 20260902070542 | 63 | 319 | 6.0 | 11.0 | 0.00 | 0.00 | 0.00 | 65 | 1013.4 |
| 20260902070042 | 63 | 336 | 5.0 | 10.0 | 0.00 | 0.00 | 0.00 | 64 | 1013.4 |
| 20260902065542 | 63 | 342 | 5.0 | 13.0 | 0.00 | 0.00 | 0.00 | 64 | 1013.4 |
| 20260902065045 | 63 | 328 | 4.0 | 13.0 | 0.00 | 0.00 | 0.00 | 63 | 1013.4 |
| 20260902064542 | 63 | 340 | 5.0 | 11.0 | 0.00 | 0.00 | 0.00 | 63 | 1013.4 |
| 20260902064041 | 63 | 348 | 5.0 | 11.0 | 0.00 | 0.00 | 0.00 | 63 | 1013.4 |